| time (UTC) | temp C | wind direction | speed KPH | gust KPH | rain 1hr cm | rain 24hr cm | rain mn cm | humidity % | barometer mb |
| 20260506215558 | 33 | 321 | 0.0 | 6.4 | 0.00 | 0.00 | 0.00 | 50 | 1013.6 |
| 20260506215059 | 33 | 227 | 0.0 | 3.2 | 0.00 | 0.00 | 0.00 | 51 | 1013.6 |
| 20260506214609 | 33 | 299 | 0.0 | 6.4 | 0.00 | 0.00 | 0.00 | 51 | 1013.6 |
| 20260506214049 | 33 | 141 | 0.0 | 6.4 | 0.00 | 0.00 | 0.00 | 51 | 1013.6 |
| 20260506213548 | 33 | 201 | 0.0 | 4.8 | 0.00 | 0.00 | 0.00 | 50 | 1013.8 |
| 20260506213047 | 33 | 92 | 1.6 | 4.8 | 0.00 | 0.00 | 0.00 | 49 | 1013.9 |
| 20260506212544 | 33 | 240 | 0.0 | 6.4 | 0.00 | 0.00 | 0.00 | 51 | 1013.9 |
| 20260506212043 | 33 | 233 | 0.0 | 6.4 | 0.00 | 0.00 | 0.00 | 52 | 1013.7 |
| 20260506211039 | 33 | 293 | 0.0 | 3.2 | 0.00 | 0.00 | 0.00 | 47 | 1014.0 |
| 20260506210539 | 33 | 96 | 0.0 | 8.0 | 0.00 | 0.00 | 0.00 | 49 | 1014.0 |
| 20260506210041 | 33 | 224 | 3.2 | 8.0 | 0.00 | 0.00 | 0.00 | 51 | 1014.0 |
| 20260506205538 | 33 | 235 | 0.0 | 4.8 | 0.00 | 0.00 | 0.00 | 49 | 1014.1 |
| 20260506205037 | 33 | 339 | 1.6 | 6.4 | 0.00 | 0.00 | 0.00 | 51 | 1014.1 |
| 20260506204536 | 33 | 205 | 1.6 | 6.4 | 0.00 | 0.00 | 0.00 | 51 | 1014.1 |
| 20260506204042 | 33 | 335 | 0.0 | 6.4 | 0.00 | 0.00 | 0.00 | 50 | 1014.1 |
| 20260506203535 | 34 | 248 | 0.0 | 4.8 | 0.00 | 0.00 | 0.00 | 50 | 1014.1 |
| 20260506203035 | 35 | 272 | 0.0 | 3.2 | 0.00 | 0.00 | 0.00 | 49 | 1014.1 |
| 20260506202531 | 34 | 266 | 0.0 | 4.8 | 0.00 | 0.00 | 0.00 | 51 | 1014.1 |
| 20260506202029 | 34 | 308 | 0.0 | 4.8 | 0.00 | 0.00 | 0.00 | 51 | 1014.3 |
| 20260506201531 | 33 | 231 | 1.6 | 6.4 | 0.00 | 0.00 | 0.00 | 51 | 1014.3 |
| 20260506201030 | 33 | 248 | 3.2 | 6.4 | 0.00 | 0.00 | 0.00 | 50 | 1014.3 |
| 20260506200527 | 33 | 148 | 1.6 | 6.4 | 0.00 | 0.00 | 0.00 | 51 | 1014.5 |
| 20260506200027 | 34 | 288 | 1.6 | 4.8 | 0.00 | 0.00 | 0.00 | 50 | 1014.6 |
| 20260506195525 | 34 | 311 | 0.0 | 8.0 | 0.00 | 0.00 | 0.00 | 52 | 1014.6 |
| 20260506195027 | 34 | 214 | 3.2 | 8.0 | 0.00 | 0.00 | 0.00 | 50 | 1014.7 |
| 20260506194527 | 35 | 255 | 1.6 | 4.8 | 0.00 | 0.00 | 0.00 | 51 | 1014.8 |
| 20260506194044 | 34 | 155 | 0.0 | 4.8 | 0.00 | 0.00 | 0.00 | 50 | 1014.8 |
| 20260506193523 | 34 | 146 | 0.0 | 6.4 | 0.00 | 0.00 | 0.00 | 50 | 1014.9 |
| 20260506193019 | 33 | 156 | 1.6 | 9.7 | 0.00 | 0.00 | 0.00 | 51 | 1015.0 |
| 20260506192518 | 33 | 247 | 1.6 | 6.4 | 0.00 | 0.00 | 0.00 | 52 | 1015.0 |
| 20260506192019 | 33 | 238 | 1.6 | 6.4 | 0.00 | 0.00 | 0.00 | 52 | 1015.1 |
| 20260506191515 | 33 | 229 | 1.6 | 6.4 | 0.00 | 0.00 | 0.00 | 53 | 1015.1 |
| 20260506191015 | 33 | 321 | 1.6 | 6.4 | 0.00 | 0.00 | 0.00 | 52 | 1015.2 |
| 20260506190512 | 33 | 319 | 0.0 | 8.0 | 0.00 | 0.00 | 0.00 | 52 | 1015.3 |
| 20260506190111 | 33 | 241 | 3.2 | 8.0 | 0.00 | 0.00 | 0.00 | 55 | 1015.3 |
| 20260506185508 | 33 | 124 | 1.6 | 12.9 | 0.00 | 0.00 | 0.00 | 52 | 1015.3 |
| 20260506185011 | 33 | 265 | 4.8 | 12.9 | 0.00 | 0.00 | 0.00 | 54 | 1015.3 |
| 20260506184507 | 32 | 331 | 1.6 | 6.4 | 0.00 | 0.00 | 0.00 | 55 | 1015.4 |
| 20260506184006 | 32 | 181 | 1.6 | 9.7 | 0.00 | 0.00 | 0.00 | 56 | 1015.5 |
| 20260506183503 | 32 | 332 | 1.6 | 6.4 | 0.00 | 0.00 | 0.00 | 54 | 1015.5 |
| 20260506183001 | 32 | 345 | 0.0 | 4.8 | 0.00 | 0.00 | 0.00 | 55 | 1015.5 |
| 20260506182600 | 32 | 253 | 1.6 | 9.7 | 0.00 | 0.00 | 0.00 | 55 | 1015.7 |
| 20260506182502 | 32 | 233 | 1.6 | 9.7 | 0.00 | 0.00 | 0.00 | 56 | 1015.7 |
| 20260506182100 | 32 | 224 | 3.2 | 9.7 | 0.00 | 0.00 | 0.00 | 57 | 1015.9 |
| 20260506181602 | 32 | 298 | 3.2 | 9.7 | 0.00 | 0.00 | 0.00 | 56 | 1015.9 |
| 20260506181501 | 32 | 312 | 3.2 | 11.3 | 0.00 | 0.00 | 0.00 | 56 | 1015.9 |
| 20260506181103 | 32 | 252 | 4.8 | 11.3 | 0.00 | 0.00 | 0.00 | 57 | 1015.8 |
| 20260506181003 | 32 | 241 | 3.2 | 11.3 | 0.00 | 0.00 | 0.00 | 59 | 1015.7 |
| 20260506180601 | 32 | 239 | 1.6 | 6.4 | 0.00 | 0.00 | 0.00 | 56 | 1016.0 |
| 20260506180101 | 32 | 234 | 1.6 | 6.4 | 0.00 | 0.00 | 0.00 | 58 | 1016.0 |
| 20260506175058 | 32 | 319 | 1.6 | 9.7 | 0.00 | 0.00 | 0.00 | 59 | 1016.0 |
| 20260506174558 | 31 | 311 | 1.6 | 9.7 | 0.00 | 0.00 | 0.00 | 61 | 1016.0 |
| 20260506174059 | 31 | 298 | 3.2 | 9.7 | 0.00 | 0.00 | 0.00 | 59 | 1016.2 |
| 20260506173551 | 32 | 74 | 0.0 | 4.8 | 0.00 | 0.00 | 0.00 | 57 | 1016.3 |
| 20260506173051 | 32 | 283 | 0.0 | 4.8 | 0.00 | 0.00 | 0.00 | 58 | 1016.5 |
| 20260506172045 | 31 | 73 | 0.0 | 6.4 | 0.00 | 0.00 | 0.00 | 60 | 1016.5 |
| 20260506171553 | 31 | 265 | 0.0 | 6.4 | 0.00 | 0.00 | 0.00 | 61 | 1016.6 |
| 20260506171040 | 30 | 255 | 0.0 | 6.4 | 0.00 | 0.00 | 0.00 | 63 | 1016.6 |
| 20260506170540 | 30 | 86 | 1.6 | 12.9 | 0.00 | 0.00 | 0.00 | 61 | 1016.6 |
| 20260506170040 | 30 | 148 | 1.6 | 8.0 | 0.00 | 0.00 | 0.00 | 62 | 1016.6 |
| 20260506165544 | 30 | 291 | 1.6 | 12.9 | 0.00 | 0.00 | 0.00 | 63 | 1016.9 |
| 20260506165036 | 31 | 252 | 3.2 | 12.9 | 0.00 | 0.00 | 0.00 | 62 | 1016.9 |
| 20260506164536 | 30 | 256 | 1.6 | 9.7 | 0.00 | 0.00 | 0.00 | 63 | 1017.0 |
| 20260506164034 | 31 | 297 | 1.6 | 6.4 | 0.00 | 0.00 | 0.00 | 63 | 1016.9 |
| 20260506163533 | 30 | 227 | 1.6 | 8.0 | 0.00 | 0.00 | 0.00 | 64 | 1017.0 |
| 20260506163041 | 30 | 262 | 1.6 | 9.7 | 0.00 | 0.00 | 0.00 | 63 | 1017.2 |
| 20260506162539 | 30 | 226 | 1.6 | 9.7 | 0.00 | 0.00 | 0.00 | 65 | 1017.2 |
| 20260506162033 | 30 | 108 | 3.2 | 12.9 | 0.00 | 0.00 | 0.00 | 64 | 1017.2 |
| 20260506161529 | 30 | 93 | 1.6 | 12.9 | 0.00 | 0.00 | 0.00 | 62 | 1017.1 |
| 20260506161031 | 30 | 207 | 1.6 | 8.0 | 0.00 | 0.00 | 0.00 | 67 | 1017.1 |
| 20260506160526 | 30 | 245 | 0.0 | 8.0 | 0.00 | 0.00 | 0.00 | 65 | 1017.2 |
| 20260506160026 | 30 | 96 | 1.6 | 12.9 | 0.00 | 0.00 | 0.00 | 67 | 1017.2 |
| 20260506155524 | 29 | 289 | 1.6 | 12.9 | 0.00 | 0.00 | 0.00 | 67 | 1017.3 |
| 20260506155030 | 28 | 217 | 3.2 | 11.3 | 0.00 | 0.00 | 0.00 | 68 | 1017.3 |
| 20260506154524 | 29 | 255 | 3.2 | 11.3 | 0.00 | 0.00 | 0.00 | 67 | 1017.3 |
| 20260506154018 | 28 | 55 | 0.0 | 9.7 | 0.00 | 0.00 | 0.00 | 70 | 1017.3 |
| 20260506153521 | 28 | 342 | 0.0 | 9.7 | 0.00 | 0.00 | 0.00 | 69 | 1017.2 |
| 20260506153120 | 28 | 186 | 1.6 | 11.3 | 0.00 | 0.00 | 0.00 | 68 | 1017.2 |
| 20260506152514 | 28 | 239 | 0.0 | 11.3 | 0.00 | 0.00 | 0.00 | 71 | 1017.2 |
| 20260506152012 | 28 | 202 | 1.6 | 6.4 | 0.00 | 0.00 | 0.00 | 69 | 1017.2 |
| 20260506151014 | 27 | 78 | 3.2 | 9.7 | 0.00 | 0.00 | 0.00 | 71 | 1017.2 |
| 20260506150507 | 27 | 267 | 1.6 | 11.3 | 0.00 | 0.00 | 0.00 | 74 | 1017.1 |
| 20260506150006 | 27 | 300 | 3.2 | 9.7 | 0.00 | 0.00 | 0.00 | 72 | 1017.1 |
| 20260506145550 | 27 | 248 | 3.2 | 9.7 | 0.00 | 0.00 | 0.00 | 72 | 1017.1 |
| 20260506145158 | 27 | 248 | 3.2 | 11.3 | 0.00 | 0.00 | 0.00 | 74 | 1017.0 |
| 20260506144559 | 26 | 326 | 3.2 | 9.7 | 0.00 | 0.00 | 0.00 | 73 | 1016.9 |
| 20260506144045 | 26 | 237 | 1.6 | 9.7 | 0.00 | 0.00 | 0.00 | 76 | 1016.9 |
| 20260506143543 | 26 | 150 | 1.6 | 9.7 | 0.00 | 0.00 | 0.00 | 77 | 1017.0 |
| 20260506143044 | 26 | 316 | 4.8 | 9.7 | 0.00 | 0.00 | 0.00 | 74 | 1016.9 |
| 20260506142540 | 26 | 265 | 3.2 | 9.7 | 0.00 | 0.00 | 0.00 | 75 | 1016.9 |
| 20260506142038 | 26 | 243 | 3.2 | 14.5 | 0.00 | 0.00 | 0.00 | 79 | 1016.9 |
| 20260506141538 | 26 | 203 | 4.8 | 14.5 | 0.00 | 0.00 | 0.00 | 77 | 1016.9 |
| 20260506141035 | 25 | 311 | 3.2 | 9.7 | 0.00 | 0.00 | 0.00 | 78 | 1017.0 |
| 20260506140534 | 25 | 238 | 1.6 | 9.7 | 0.00 | 0.00 | 0.00 | 79 | 1016.9 |
| 20260506140032 | 25 | 261 | 1.6 | 9.7 | 0.00 | 0.00 | 0.00 | 80 | 1016.9 |
| 20260506135530 | 25 | 271 | 1.6 | 8.0 | 0.00 | 0.00 | 0.00 | 82 | 1016.9 |
| 20260506135029 | 24 | 60 | 1.6 | 9.7 | 0.00 | 0.00 | 0.00 | 81 | 1017.0 |
| 20260506134527 | 24 | 323 | 3.2 | 11.3 | 0.00 | 0.00 | 0.00 | 80 | 1017.0 |
| 20260506134026 | 23 | 339 | 1.6 | 11.3 | 0.00 | 0.00 | 0.00 | 81 | 1017.0 |
| 20260506133524 | 23 | 275 | 1.6 | 12.9 | 0.00 | 0.00 | 0.00 | 83 | 1017.0 |
| 20260506133039 | 23 | 274 | 1.6 | 11.3 | 0.00 | 0.00 | 0.00 | 82 | 1016.9 |
| 20260506132517 | 23 | 258 | 3.2 | 12.9 | 0.00 | 0.00 | 0.00 | 83 | 1017.1 |
| 20260506132017 | 22 | 312 | 3.2 | 11.3 | 0.00 | 0.00 | 0.00 | 84 | 1017.1 |
| 20260506131517 | 22 | 245 | 1.6 | 6.4 | 0.00 | 0.00 | 0.00 | 85 | 1017.0 |
| 20260506131012 | 22 | 250 | 1.6 | 9.7 | 0.00 | 0.00 | 0.00 | 86 | 1016.8 |
| 20260506130510 | 21 | 291 | 0.0 | 4.8 | 0.00 | 0.00 | 0.00 | 88 | 1016.8 |
| 20260506130012 | 21 | 298 | 0.0 | 4.8 | 0.00 | 0.00 | 0.00 | 88 | 1016.8 |
| 20260506125507 | 20 | 250 | 0.0 | 1.6 | 0.00 | 0.00 | 0.00 | 90 | 1016.8 |
| 20260506125018 | 20 | 49 | 0.0 | 1.6 | 0.00 | 0.00 | 0.00 | 90 | 1016.7 |
| 20260506124559 | 20 | 115 | 0.0 | 6.4 | 0.00 | 0.00 | 0.00 | 91 | 1016.9 |
| 20260506124057 | 19 | 199 | 0.0 | 6.4 | 0.00 | 0.00 | 0.00 | 92 | 1016.7 |
| 20260506123557 | 18 | 248 | 0.0 | 1.6 | 0.00 | 0.00 | 0.00 | 92 | 1016.7 |
| 20260506123050 | 18 | 244 | 0.0 | 1.6 | 0.00 | 0.00 | 0.00 | 93 | 1016.6 |
| 20260506122546 | 17 | 161 | 0.0 | 0.0 | 0.00 | 0.00 | 0.00 | 93 | 1016.7 |
| 20260506121540 | 17 | 160 | 0.0 | 0.0 | 0.00 | 0.00 | 0.00 | 93 | 1016.4 |
| 20260506121141 | 17 | 162 | 0.0 | 0.0 | 0.00 | 0.00 | 0.00 | 93 | 1016.4 |
| 20260506120544 | 16 | 162 | 0.0 | 0.0 | 0.00 | 0.00 | 0.00 | 93 | 1016.3 |
| 20260506120047 | 16 | 162 | 0.0 | 0.0 | 0.00 | 0.00 | 0.00 | 93 | 1016.5 |
| 20260506115538 | 16 | 162 | 0.0 | 0.0 | 0.00 | 0.00 | 0.00 | 93 | 1016.2 |
| 20260506115033 | 16 | 162 | 0.0 | 0.0 | 0.00 | 0.00 | 0.00 | 93 | 1016.3 |
| 20260506114532 | 16 | 162 | 0.0 | 0.0 | 0.00 | 0.00 | 0.00 | 93 | 1016.2 |
| 20260506114036 | 16 | 162 | 0.0 | 0.0 | 0.00 | 0.00 | 0.00 | 93 | 1016.3 |
| 20260506113531 | 15 | 162 | 0.0 | 0.0 | 0.00 | 0.00 | 0.00 | 93 | 1016.2 |
| 20260506113031 | 15 | 162 | 0.0 | 0.0 | 0.00 | 0.00 | 0.00 | 93 | 1016.1 |
| 20260506112530 | 15 | 162 | 0.0 | 0.0 | 0.00 | 0.00 | 0.00 | 93 | 1016.1 |
| 20260506112029 | 15 | 155 | 0.0 | 0.0 | 0.00 | 0.00 | 0.00 | 93 | 1016.2 |
| 20260506111529 | 15 | 155 | 0.0 | 0.0 | 0.00 | 0.00 | 0.00 | 93 | 1016.2 |
| 20260506111028 | 15 | 155 | 0.0 | 0.0 | 0.00 | 0.00 | 0.00 | 93 | 1016.1 |
| 20260506110525 | 15 | 155 | 0.0 | 0.0 | 0.00 | 0.00 | 0.00 | 93 | 1016.1 |
| 20260506110030 | 15 | 155 | 0.0 | 0.0 | 0.00 | 0.00 | 0.00 | 93 | 1016.0 |
| 20260506105523 | 15 | 155 | 0.0 | 0.0 | 0.00 | 0.00 | 0.00 | 92 | 1015.9 |
| 20260506105021 | 15 | 155 | 0.0 | 0.0 | 0.00 | 0.00 | 0.00 | 92 | 1015.7 |
| 20260506104521 | 15 | 155 | 0.0 | 0.0 | 0.00 | 0.00 | 0.00 | 92 | 1015.7 |
| 20260506104023 | 15 | 155 | 0.0 | 0.0 | 0.00 | 0.00 | 0.00 | 92 | 1015.5 |
| 20260506103510 | 15 | 155 | 0.0 | 0.0 | 0.00 | 0.00 | 0.00 | 92 | 1015.5 |
| 20260506103010 | 15 | 155 | 0.0 | 0.0 | 0.00 | 0.00 | 0.00 | 92 | 1015.3 |
| 20260506102510 | 15 | 155 | 0.0 | 0.0 | 0.00 | 0.00 | 0.00 | 92 | 1015.3 |
| 20260506102014 | 15 | 155 | 0.0 | 0.0 | 0.00 | 0.00 | 0.00 | 92 | 1015.4 |
| 20260506101509 | 15 | 155 | 0.0 | 0.0 | 0.00 | 0.00 | 0.00 | 92 | 1015.5 |
| 20260506101010 | 15 | 155 | 0.0 | 0.0 | 0.00 | 0.00 | 0.00 | 92 | 1015.6 |
| 20260506100507 | 15 | 155 | 0.0 | 0.0 | 0.00 | 0.00 | 0.00 | 92 | 1015.5 |
| 20260506100010 | 15 | 155 | 0.0 | 0.0 | 0.00 | 0.00 | 0.00 | 92 | 1015.7 |
| 20260506095506 | 15 | 155 | 0.0 | 0.0 | 0.00 | 0.00 | 0.00 | 92 | 1015.5 |
| 20260506095006 | 15 | 155 | 0.0 | 0.0 | 0.00 | 0.00 | 0.00 | 92 | 1015.7 |
| 20260506094506 | 15 | 155 | 0.0 | 0.0 | 0.00 | 0.00 | 0.00 | 92 | 1015.7 |
| 20260506094002 | 15 | 155 | 0.0 | 0.0 | 0.00 | 0.00 | 0.00 | 92 | 1015.7 |
| 20260506093505 | 15 | 155 | 0.0 | 0.0 | 0.00 | 0.00 | 0.00 | 92 | 1015.5 |
| 20260506093000 | 15 | 155 | 0.0 | 0.0 | 0.00 | 0.00 | 0.00 | 92 | 1015.3 |
| 20260506092600 | 15 | 155 | 0.0 | 0.0 | 0.00 | 0.00 | 0.00 | 92 | 1015.3 |
| 20260506092504 | 15 | 155 | 0.0 | 0.0 | 0.00 | 0.00 | 0.00 | 92 | 1015.2 |
| 20260506092059 | 15 | 155 | 0.0 | 0.0 | 0.00 | 0.00 | 0.00 | 92 | 1015.3 |
| 20260506092001 | 15 | 155 | 0.0 | 0.0 | 0.00 | 0.00 | 0.00 | 92 | 1015.3 |
| 20260506091606 | 15 | 155 | 0.0 | 0.0 | 0.00 | 0.00 | 0.00 | 91 | 1015.1 |
| 20260506091059 | 15 | 155 | 0.0 | 0.0 | 0.00 | 0.00 | 0.00 | 92 | 1015.2 |
| 20260506090513 | 15 | 155 | 0.0 | 0.0 | 0.00 | 0.00 | 0.00 | 92 | 1015.3 |
| 20260506090013 | 15 | 155 | 0.0 | 0.0 | 0.00 | 0.00 | 0.00 | 91 | 1015.3 |
| 20260506085618 | 15 | 155 | 0.0 | 0.0 | 0.00 | 0.00 | 0.00 | 91 | 1015.4 |
| 20260506085009 | 15 | 155 | 0.0 | 0.0 | 0.00 | 0.00 | 0.00 | 91 | 1015.3 |
| 20260506084510 | 15 | 155 | 0.0 | 0.0 | 0.00 | 0.00 | 0.00 | 91 | 1015.2 |
| 20260506084010 | 15 | 155 | 0.0 | 0.0 | 0.00 | 0.00 | 0.00 | 91 | 1015.3 |
| 20260506083606 | 15 | 155 | 0.0 | 0.0 | 0.00 | 0.00 | 0.00 | 91 | 1015.2 |
| 20260506083009 | 15 | 155 | 0.0 | 0.0 | 0.00 | 0.00 | 0.00 | 91 | 1015.2 |
| 20260506082505 | 15 | 155 | 0.0 | 0.0 | 0.00 | 0.00 | 0.00 | 91 | 1015.3 |
| 20260506082004 | 15 | 155 | 0.0 | 0.0 | 0.00 | 0.00 | 0.00 | 91 | 1015.3 |
| 20260506081601 | 15 | 155 | 0.0 | 0.0 | 0.00 | 0.00 | 0.00 | 91 | 1015.2 |
| 20260506081106 | 15 | 155 | 0.0 | 0.0 | 0.00 | 0.00 | 0.00 | 91 | 1015.3 |
| 20260506080602 | 15 | 155 | 0.0 | 0.0 | 0.00 | 0.00 | 0.00 | 90 | 1015.3 |
| 20260506073052 | 15 | 155 | 0.0 | 0.0 | 0.00 | 0.00 | 0.00 | 90 | 1015.1 |
| 20260506072552 | 15 | 155 | 0.0 | 0.0 | 0.00 | 0.00 | 0.00 | 90 | 1015.2 |
| 20260506072052 | 15 | 155 | 0.0 | 0.0 | 0.00 | 0.00 | 0.00 | 90 | 1015.3 |
| 20260506071548 | 15 | 155 | 0.0 | 0.0 | 0.00 | 0.00 | 0.00 | 90 | 1015.3 |
| 20260506071049 | 15 | 155 | 0.0 | 0.0 | 0.00 | 0.00 | 0.00 | 90 | 1015.3 |
| 20260506070549 | 15 | 155 | 0.0 | 0.0 | 0.00 | 0.00 | 0.00 | 90 | 1015.4 |
| 20260506070150 | 15 | 155 | 0.0 | 0.0 | 0.00 | 0.00 | 0.00 | 90 | 1015.3 |
| 20260506062040 | 16 | 155 | 0.0 | 0.0 | 0.00 | 0.00 | 0.00 | 89 | 1015.7 |
| 20260506061542 | 16 | 155 | 0.0 | 0.0 | 0.00 | 0.00 | 0.00 | 89 | 1015.8 |
| 20260506061041 | 16 | 155 | 0.0 | 0.0 | 0.00 | 0.00 | 0.00 | 89 | 1015.8 |
| 20260506060536 | 16 | 155 | 0.0 | 0.0 | 0.00 | 0.00 | 0.00 | 89 | 1015.8 |
| 20260506051022 | 16 | 155 | 0.0 | 0.0 | 0.00 | 0.00 | 0.00 | 88 | 1016.4 |
| 20260506050530 | 16 | 155 | 0.0 | 0.0 | 0.00 | 0.00 | 0.00 | 88 | 1016.5 |
| 20260506045025 | 16 | 155 | 0.0 | 0.0 | 0.00 | 0.00 | 0.00 | 88 | 1016.6 |
| 20260506044519 | 16 | 155 | 0.0 | 0.0 | 0.00 | 0.00 | 0.00 | 87 | 1016.5 |
| 20260506044011 | 16 | 155 | 0.0 | 0.0 | 0.00 | 0.00 | 0.00 | 87 | 1016.7 |
| 20260506043510 | 16 | 155 | 0.0 | 0.0 | 0.00 | 0.00 | 0.00 | 87 | 1016.6 |
| 20260506042501 | 16 | 155 | 0.0 | 0.0 | 0.00 | 0.00 | 0.00 | 87 | 1016.5 |
| 20260506042058 | 16 | 155 | 0.0 | 0.0 | 0.00 | 0.00 | 0.00 | 87 | 1016.7 |
| 20260506041559 | 16 | 155 | 0.0 | 0.0 | 0.00 | 0.00 | 0.00 | 87 | 1016.8 |
| 20260506041055 | 16 | 155 | 0.0 | 0.0 | 0.00 | 0.00 | 0.00 | 86 | 1016.9 |
| 20260506040555 | 16 | 155 | 0.0 | 0.0 | 0.00 | 0.00 | 0.00 | 86 | 1017.0 |
| 20260506040053 | 16 | 155 | 0.0 | 0.0 | 0.00 | 0.00 | 0.00 | 87 | 1016.9 |
| 20260506035553 | 16 | 155 | 0.0 | 0.0 | 0.00 | 0.00 | 0.00 | 86 | 1016.8 |
| 20260506035054 | 16 | 155 | 0.0 | 0.0 | 0.00 | 0.00 | 0.00 | 86 | 1016.8 |
| 20260506034555 | 17 | 155 | 0.0 | 0.0 | 0.00 | 0.00 | 0.00 | 85 | 1016.7 |
| 20260506034053 | 17 | 155 | 0.0 | 0.0 | 0.00 | 0.00 | 0.00 | 85 | 1016.5 |
| 20260506033551 | 17 | 155 | 0.0 | 0.0 | 0.00 | 0.00 | 0.00 | 85 | 1016.4 |
| 20260506033053 | 17 | 155 | 0.0 | 0.0 | 0.00 | 0.00 | 0.00 | 85 | 1016.4 |
| 20260506032554 | 17 | 155 | 0.0 | 0.0 | 0.00 | 0.00 | 0.00 | 85 | 1016.4 |
| 20260506032053 | 17 | 155 | 0.0 | 0.0 | 0.00 | 0.00 | 0.00 | 86 | 1016.3 |
| 20260506031548 | 17 | 155 | 0.0 | 0.0 | 0.00 | 0.00 | 0.00 | 86 | 1016.3 |
| 20260506031048 | 17 | 155 | 0.0 | 0.0 | 0.00 | 0.00 | 0.00 | 85 | 1016.3 |
| 20260506030552 | 17 | 155 | 0.0 | 0.0 | 0.00 | 0.00 | 0.00 | 84 | 1016.3 |
| 20260506030046 | 17 | 155 | 0.0 | 0.0 | 0.00 | 0.00 | 0.00 | 84 | 1016.2 |
| 20260506025552 | 17 | 155 | 0.0 | 0.0 | 0.00 | 0.00 | 0.00 | 84 | 1016.2 |
| 20260506025046 | 17 | 155 | 0.0 | 0.0 | 0.00 | 0.00 | 0.00 | 84 | 1016.2 |
| 20260506024548 | 17 | 155 | 0.0 | 0.0 | 0.00 | 0.00 | 0.00 | 83 | 1016.2 |
| 20260506024045 | 18 | 155 | 0.0 | 0.0 | 0.00 | 0.00 | 0.00 | 82 | 1016.2 |
| 20260506023545 | 18 | 155 | 0.0 | 0.0 | 0.00 | 0.00 | 0.00 | 81 | 1016.3 |
| 20260506023055 | 18 | 155 | 0.0 | 0.0 | 0.00 | 0.00 | 0.00 | 81 | 1016.2 |
| 20260506022541 | 18 | 155 | 0.0 | 0.0 | 0.00 | 0.00 | 0.00 | 82 | 1016.1 |
| 20260506022042 | 18 | 155 | 0.0 | 0.0 | 0.00 | 0.00 | 0.00 | 81 | 1016.1 |
| 20260506021552 | 18 | 155 | 0.0 | 0.0 | 0.00 | 0.00 | 0.00 | 81 | 1016.0 |
| 20260506021041 | 18 | 155 | 0.0 | 0.0 | 0.00 | 0.00 | 0.00 | 81 | 1016.0 |
| 20260506020541 | 18 | 155 | 0.0 | 0.0 | 0.00 | 0.00 | 0.00 | 80 | 1016.0 |
| 20260506020040 | 19 | 155 | 0.0 | 0.0 | 0.00 | 0.00 | 0.00 | 79 | 1015.9 |
| 20260506015538 | 19 | 155 | 0.0 | 0.0 | 0.00 | 0.00 | 0.00 | 79 | 1015.8 |
| 20260506015039 | 19 | 155 | 0.0 | 0.0 | 0.00 | 0.00 | 0.00 | 79 | 1015.8 |
| 20260506014539 | 19 | 155 | 0.0 | 0.0 | 0.00 | 0.00 | 0.00 | 78 | 1015.8 |
| 20260506014036 | 20 | 155 | 0.0 | 0.0 | 0.00 | 0.00 | 0.00 | 78 | 1015.8 |
| 20260506013535 | 20 | 155 | 0.0 | 0.0 | 0.00 | 0.00 | 0.00 | 77 | 1015.7 |
| 20260506013033 | 20 | 155 | 0.0 | 0.0 | 0.00 | 0.00 | 0.00 | 77 | 1015.7 |
| 20260506012532 | 20 | 155 | 0.0 | 0.0 | 0.00 | 0.00 | 0.00 | 77 | 1015.6 |
| 20260506012032 | 20 | 155 | 0.0 | 0.0 | 0.00 | 0.00 | 0.00 | 76 | 1015.7 |
| 20260506011535 | 20 | 155 | 0.0 | 0.0 | 0.00 | 0.00 | 0.00 | 76 | 1015.6 |
| 20260506011030 | 20 | 155 | 0.0 | 0.0 | 0.00 | 0.00 | 0.00 | 75 | 1015.5 |
| 20260506010529 | 20 | 155 | 0.0 | 0.0 | 0.00 | 0.00 | 0.00 | 75 | 1015.7 |
| 20260506010044 | 21 | 155 | 0.0 | 0.0 | 0.00 | 0.00 | 0.00 | 75 | 1015.7 |
| 20260506005530 | 21 | 155 | 0.0 | 1.6 | 0.00 | 0.00 | 0.00 | 74 | 1015.6 |
| 20260506005028 | 21 | 155 | 0.0 | 1.6 | 0.00 | 0.00 | 0.00 | 73 | 1015.5 |
| 20260506004528 | 21 | 323 | 0.0 | 0.0 | 0.00 | 0.00 | 0.00 | 72 | 1015.6 |
| 20260506004025 | 21 | 323 | 0.0 | 1.6 | 0.00 | 0.00 | 0.00 | 72 | 1015.6 |
| 20260506003529 | 21 | 323 | 0.0 | 3.2 | 0.00 | 0.00 | 0.00 | 72 | 1015.5 |
| 20260506003024 | 21 | 136 | 0.0 | 3.2 | 0.00 | 0.00 | 0.00 | 72 | 1015.5 |
| 20260506002524 | 21 | 333 | 0.0 | 1.6 | 0.00 | 0.00 | 0.00 | 71 | 1015.4 |
| 20260506002026 | 22 | 343 | 0.0 | 3.2 | 0.00 | 0.00 | 0.00 | 70 | 1015.4 |
| 20260506001531 | 22 | 124 | 0.0 | 3.2 | 0.00 | 0.00 | 0.00 | 70 | 1015.4 |
| 20260506001023 | 22 | 324 | 0.0 | 1.6 | 0.00 | 0.00 | 0.00 | 70 | 1015.2 |
| 20260506000625 | 22 | 334 | 0.0 | 1.6 | 0.00 | 0.00 | 0.00 | 69 | 1015.2 |
| 20260506000019 | 22 | 3 | 0.0 | 3.2 | 0.00 | 0.00 | 0.00 | 69 | 1015.3 |
| 20260505235523 | 22 | 325 | 0.0 | 8.0 | 0.00 | 0.00 | 0.00 | 68 | 1015.1 |
| 20260505235020 | 22 | 250 | 0.0 | 8.0 | 0.00 | 0.00 | 0.00 | 67 | 1015.1 |
| 20260505234533 | 23 | 82 | 0.0 | 8.0 | 0.00 | 0.00 | 0.00 | 67 | 1015.2 |
| 20260505234023 | 23 | 178 | 0.0 | 6.4 | 0.00 | 0.00 | 0.00 | 66 | 1015.1 |
| 20260505233614 | 23 | 178 | 0.0 | 6.4 | 0.00 | 0.00 | 0.00 | 66 | 1015.1 |
| 20260505233011 | 23 | 280 | 0.0 | 8.0 | 0.00 | 0.00 | 0.00 | 65 | 1015.1 |
| 20260505232513 | 23 | 298 | 0.0 | 8.0 | 0.00 | 0.00 | 0.00 | 63 | 1015.0 |
| 20260505232016 | 23 | 211 | 1.6 | 8.0 | 0.00 | 0.00 | 0.00 | 63 | 1015.1 |
| 20260505231513 | 24 | 179 | 1.6 | 8.0 | 0.00 | 0.00 | 0.00 | 61 | 1015.0 |
| 20260505231015 | 25 | 89 | 0.0 | 6.4 | 0.00 | 0.00 | 0.00 | 61 | 1015.0 |
| 20260505230525 | 25 | 254 | 0.0 | 8.0 | 0.00 | 0.00 | 0.00 | 60 | 1014.9 |
| 20260505230013 | 25 | 92 | 1.6 | 12.9 | 0.00 | 0.00 | 0.00 | 59 | 1015.1 |
| 20260505225510 | 25 | 99 | 1.6 | 8.0 | 0.00 | 0.00 | 0.00 | 59 | 1015.1 |
| 20260505225006 | 25 | 221 | 1.6 | 4.8 | 0.00 | 0.00 | 0.00 | 58 | 1015.1 |
| 20260505224507 | 25 | 311 | 0.0 | 4.8 | 0.00 | 0.00 | 0.00 | 58 | 1015.0 |
| 20260505224006 | 25 | 236 | 0.0 | 9.7 | 0.00 | 0.00 | 0.00 | 58 | 1015.1 |
| 20260505223505 | 25 | 124 | 1.6 | 8.0 | 0.00 | 0.00 | 0.00 | 58 | 1015.1 |
| 20260505223002 | 25 | 165 | 0.0 | 8.0 | 0.00 | 0.00 | 0.00 | 58 | 1015.0 |
| 20260505222503 | 25 | 150 | 1.6 | 6.4 | 0.00 | 0.00 | 0.00 | 57 | 1015.0 |
| 20260505222002 | 25 | 25 | 0.0 | 8.0 | 0.00 | 0.00 | 0.00 | 56 | 1015.0 |
| 20260505221600 | 26 | 103 | 1.6 | 8.0 | 0.00 | 0.00 | 0.00 | 56 | 1015.2 |
| 20260505221501 | 26 | 300 | 0.0 | 8.0 | 0.00 | 0.00 | 0.00 | 57 | 1015.1 |
| 20260505221101 | 26 | 32 | 3.2 | 8.0 | 0.00 | 0.00 | 0.00 | 55 | 1015.0 |
| 20260505221002 | 26 | 160 | 1.6 | 6.4 | 0.00 | 0.00 | 0.00 | 56 | 1015.1 |
| 20260505220602 | 26 | 323 | 0.0 | 9.7 | 0.00 | 0.00 | 0.00 | 56 | 1014.9 |
| 20260505220100 | 26 | 296 | 1.6 | 12.9 | 0.00 | 0.00 | 0.00 | 54 | 1015.0 |